Vereeniging Airport

Jump to: basic info | weather | frequencies | runways | comments

Related pages: nearby airports | nearby navaids | notams | map

Basic information (top)

Codes: FAVV
Location: lon -26.566401, lat 27.960800, elev 4,846 ft / 1,477 m msl
Status: medium_airport

Weather (top)

Current conditions (rec'd 2014/10/30 15:00Z):

FAVV 301500Z AUTO 26007KT //// // ////// 31/M01 Q1017

Airport forecast for OR Tambo International Airport 30nm (55km) NNE (rec'd 2014/10/29 00:00Z):

TAF FAOR 292200Z 3000/3106 35008KT CAVOK 
      BECMG 3007/3009 28008KT 
      BECMG 3009/3011 SCT045 PROB40 
      TEMPO 3013/3020 4000 TSRA FEW040CB 
      BECMG 3015/3017 22006KT CAVOK 
      BECMG 3020/3022 VRB05KT PROB30 
      TEMPO 3020/3024 5000 TSRA FEW045CB 
      BECMG 3103/3105 03005KT TX30/3012ZTN14/3103Z

Frequencies (top)

Verify before use: may be inaccurate or out of date.

CTAF: 122.1 MHz (CTAF)

Runways (top)

03/21: 5,266 x 72 ft (1,605 x 22 m) — paved — lighted — threshold 21 displaced 260 ft (79 m)

15/33: 3,724 x 52 ft (1,135 x 16 m) — paved — not lighted

Latest comments (top)

help: My son whom is in Grade 11 has a school ... [read]

Information: Good day this is Mpho, i just need to ... [read]

More... (top)

See also NOTAMs and nearby airports and navaids, or visit the Vereeniging Airport page at the main OurAirports website..